Longville, MN

4:08 PM CDT on July 23, 2017 (GMT -0500)
Longville Municipal

Weather History for KXVG - October, 2011

Change the Weather History Date:

Saturday, October 22, 2011

  Actual Average (KPWC) Record (KPWC)
Temperature  
Mean Temperature 42 °F -  
Max Temperature 59 °F 49 °F 68 °F (2000)
Min Temperature 26 °F 32 °F 24 °F (2001)
Degree Days  
Heating Degree Days 22    
Moisture  
Dew Point 34 °F    
Average Humidity 73    
Maximum Humidity 100    
Minimum Humidity 39    
Precipitation  
Precipitation 0.00 in - - ()
Sea Level Pressure  
Sea Level Pressure 30.01 in    
Wind  
Wind Speed 3 mph (South)    
Max Wind Speed 10 mph    
Max Gust Speed 18 mph    
Visibility 7 miles    
Events Fog    
Averages and records for this station are not official NWS values.
T = Trace of Precipitation, MM = Missing Value Source: NWS Daily Summary

Daily Weather History Graph

Daily Weather History Graph

Search for Another Location

Airport or City:

Trip Planner

Search our weather history database for the weather conditions in past years. The results will help you decide how hot, cold, wet, or windy it might be!

Date:

Astronomy

Oct. 22, 2011 Rise Set
Actual Time 7:44 AM CDT 6:17 PM CDT
Civil Twilight 7:13 AM CDT 6:48 PM CDT
Nautical Twilight 6:37 AM CDT 7:23 PM CDT
Astronomical Twilight 6:02 AM CDT 7:58 PM CDT
Moon 2:24 AM CDT (10/22) 3:50 PM CDT (10/22)
Length of Visible Light 11h 34m
Length of Day
10h 32m
Waning Crescent, 23% of the Moon is Illuminated
Oct 22
Waning Crescent
Oct 26
New
Nov 2
First Quarter
Nov 10
Full
Nov 18
Last Quarter

Hourly Weather History & Observations

Time (CDT) Temp. Windchill Dew Point Humidity Pressure Visibility Wind Dir Wind Speed Gust Speed Precip Events Conditions
12:17 AM 44.6 °F 42.2 °F 37.4 °F 76% 30.02 in 10.0 mi WNW 4.6 mph - N/A   Clear
12:38 AM 42.8 °F 40.1 °F 37.4 °F 81% 30.02 in 10.0 mi WNW 4.6 mph - N/A   Clear
12:57 AM 42.8 °F - 37.4 °F 81% 30.02 in 10.0 mi Calm Calm - N/A   Clear
1:17 AM 39.2 °F - 37.4 °F 93% 30.02 in 10.0 mi Calm Calm - N/A   Clear
1:37 AM 39.2 °F - 37.4 °F 93% 30.03 in 10.0 mi Calm Calm - N/A   Clear
2:17 AM 33.8 °F - 32.0 °F 93% 30.04 in 7.0 mi Calm Calm - N/A   Clear
2:37 AM 35.6 °F - 33.8 °F 93% 30.04 in 3.0 mi Calm Calm - N/A   Clear
2:57 AM 33.8 °F - 33.8 °F 100% 30.04 in 0.8 mi Calm Calm - N/A   Mist
3:17 AM 30.2 °F - 30.2 °F 100% 30.04 in 4.0 mi Calm Calm - N/A   Scattered Clouds
4:17 AM 28.4 °F - 28.4 °F 100% 30.05 in 0.2 mi Calm Calm - N/A Fog Light Freezing Fog
4:37 AM 28.4 °F - 28.4 °F 100% 30.05 in 0.5 mi Calm Calm - N/A Fog Light Freezing Fog
4:57 AM 30.2 °F - 30.2 °F 100% 30.06 in 0.2 mi Calm Calm - N/A Fog Light Freezing Fog
5:17 AM 30.2 °F - 30.2 °F 100% 30.06 in 0.2 mi Calm Calm - N/A Fog Light Freezing Fog
5:37 AM 30.2 °F - 30.2 °F 100% 30.07 in 0.2 mi Calm Calm - N/A Fog Light Freezing Fog
5:57 AM 28.4 °F - 28.4 °F 100% 30.07 in 0.2 mi Calm Calm - N/A Fog Light Freezing Fog
6:18 AM 30.2 °F - 28.4 °F 93% 30.07 in 0.2 mi Calm Calm - N/A Fog Light Freezing Fog
6:37 AM 28.4 °F - 28.4 °F 100% 30.08 in 0.2 mi Calm Calm - N/A Fog Light Freezing Fog
6:57 AM 28.4 °F - 28.4 °F 100% 30.08 in 0.2 mi Calm Calm - N/A Fog Light Freezing Fog
7:18 AM 28.4 °F - 28.4 °F 100% 30.08 in 0.2 mi Calm Calm - N/A Fog Light Freezing Fog
7:37 AM 28.4 °F - 28.4 °F 100% 30.09 in 0.2 mi Calm Calm - N/A Fog Light Freezing Fog
7:58 AM 26.6 °F - 26.6 °F 100% 30.10 in 0.2 mi Calm Calm - N/A Fog Light Freezing Fog
8:18 AM 26.6 °F - 26.6 °F 100% 30.11 in 0.2 mi Calm Calm - N/A Fog Light Freezing Fog
8:37 AM 28.4 °F - 28.4 °F 100% 30.10 in 2.5 mi Calm Calm - N/A   Scattered Clouds
8:57 AM 30.2 °F - 30.2 °F 100% 30.10 in 3.0 mi Calm Calm - N/A   Clear
9:17 AM 35.6 °F - 35.6 °F 100% 30.10 in 3.0 mi Calm Calm - N/A   Clear
9:37 AM 39.2 °F - 39.2 °F 100% 30.10 in 7.0 mi Calm Calm - N/A   Clear
10:18 AM 42.8 °F - 42.8 °F 100% 30.10 in 10.0 mi Calm Calm - N/A   Clear
10:37 AM 44.6 °F - 42.8 °F 93% 30.10 in 10.0 mi Calm Calm - N/A   Clear
11:17 AM 50.0 °F - 37.4 °F 62% 30.10 in 10.0 mi Calm Calm - N/A   Clear
11:37 AM 51.8 °F - 37.4 °F 58% 30.10 in 10.0 mi Calm Calm - N/A   Clear
11:57 AM 51.8 °F - 37.4 °F 58% 30.10 in 10.0 mi SSW 4.6 mph - N/A   Clear
12:17 PM 53.6 °F - 37.4 °F 54% 30.09 in 10.0 mi WSW 3.5 mph - N/A   Clear
12:38 PM 53.6 °F - 37.4 °F 54% 30.08 in 10.0 mi SW 3.5 mph - N/A   Clear
12:57 PM 55.4 °F - 35.6 °F 47% 30.07 in 10.0 mi SW 3.5 mph - N/A   Clear
1:17 PM 55.4 °F - 35.6 °F 47% 30.06 in 10.0 mi SSW 4.6 mph - N/A   Clear
1:37 PM 55.4 °F - 35.6 °F 47% 30.05 in 10.0 mi South 4.6 mph - N/A   Clear
1:57 PM 55.4 °F - 35.6 °F 47% 30.04 in 10.0 mi SW 8.1 mph - N/A   Clear
2:17 PM 57.2 °F - 35.6 °F 44% 30.03 in 10.0 mi South 3.5 mph - N/A   Clear
2:37 PM 57.2 °F - 35.6 °F 44% 30.02 in 10.0 mi SW 4.6 mph - N/A   Clear
2:57 PM 59.0 °F - 33.8 °F 39% 30.02 in 10.0 mi SSW 4.6 mph - N/A   Clear
3:17 PM 57.2 °F - 33.8 °F 41% 30.01 in 10.0 mi South 3.5 mph - N/A   Clear
3:37 PM 59.0 °F - 33.8 °F 39% 30.00 in 10.0 mi South 4.6 mph - N/A   Clear
3:57 PM 59.0 °F - 33.8 °F 39% 30.00 in 10.0 mi South 6.9 mph - N/A   Clear
4:18 PM 57.2 °F - 33.8 °F 41% 29.99 in 10.0 mi South 5.8 mph - N/A   Clear
4:37 PM 57.2 °F - 33.8 °F 41% 29.99 in 10.0 mi South 5.8 mph - N/A   Clear
4:57 PM 57.2 °F - 33.8 °F 41% 29.98 in 10.0 mi South 4.6 mph - N/A   Clear
5:17 PM 57.2 °F - 35.6 °F 44% 29.97 in 10.0 mi South 5.8 mph - N/A   Clear
5:37 PM 55.4 °F - 35.6 °F 47% 29.96 in 10.0 mi South 6.9 mph - N/A   Clear
5:57 PM 53.6 °F - 35.6 °F 51% 29.96 in 10.0 mi SSE 6.9 mph - N/A   Clear
6:17 PM 51.8 °F - 35.6 °F 54% 29.96 in 10.0 mi South 5.8 mph - N/A   Clear
6:37 PM 51.8 °F - 35.6 °F 54% 29.96 in 10.0 mi South 5.8 mph - N/A   Clear
6:57 PM 48.2 °F - 35.6 °F 62% 29.95 in 10.0 mi SSE 6.9 mph - N/A   Scattered Clouds
7:17 PM 46.4 °F 42.9 °F 35.6 °F 66% 29.95 in 10.0 mi SSE 6.9 mph - N/A   Clear
7:37 PM 46.4 °F 42.9 °F 35.6 °F 66% 29.94 in 10.0 mi SSE 6.9 mph - N/A   Clear
7:57 PM 46.4 °F 42.9 °F 35.6 °F 66% 29.93 in 10.0 mi South 6.9 mph - N/A   Clear
8:17 PM 44.6 °F 41.4 °F 35.6 °F 71% 29.92 in 10.0 mi SSE 5.8 mph - N/A   Clear
8:37 PM 42.8 °F 38.0 °F 35.6 °F 76% 29.91 in 10.0 mi SSE 8.1 mph - N/A   Clear
8:57 PM 44.6 °F 42.2 °F 37.4 °F 76% 29.91 in 10.0 mi SSE 4.6 mph - N/A   Clear
9:17 PM 44.6 °F 41.4 °F 37.4 °F 76% 29.91 in 10.0 mi South 5.8 mph - N/A   Clear
9:37 PM 44.6 °F 40.7 °F 37.4 °F 76% 29.90 in 10.0 mi SSE 6.9 mph - N/A   Clear
9:57 PM 44.6 °F 40.2 °F 37.4 °F 76% 29.89 in 10.0 mi SSE 8.1 mph - N/A   Clear
10:37 PM 48.2 °F - 37.4 °F 66% 29.86 in 10.0 mi South 10.4 mph - N/A   Clear
10:58 PM 48.2 °F - 37.4 °F 66% 29.85 in 10.0 mi South 10.4 mph - N/A   Clear
11:17 PM 48.2 °F - 37.4 °F 66% 29.84 in 10.0 mi South 10.4 mph 16.1 mph N/A   Mostly Cloudy
11:37 PM 48.2 °F - 37.4 °F 66% 29.83 in 10.0 mi South 10.4 mph 16.1 mph N/A   Mostly Cloudy
11:57 PM 50.0 °F - 37.4 °F 62% 29.82 in 10.0 mi South 10.4 mph 18.4 mph N/A   Mostly Cloudy